Location: Fluertsh�userhof
(48.7537°N, 10.3850°E)
Time: 05:37:36
(UTC+00:00)

USA 186 - Pass Details

Date: 18 September 2020
Orbit: 261 x 425 km, 96.9° (Epoch: 12 October)

Event Time Altitude Azimuth Distance (km) Brightness Sun altitude
Exits shadow 18:49:23 14° 168° (SSE) 1,203 3.8 -14.6°
Maximum altitude 18:51:55 87° 259° (W) 416 1.7 -15.0°
Drops below altitude 10° 18:55:10 10° 347° (NNW) 1,512 5.0 -15.5°
Sets 18:57:13 0° 348° (NNW) 2,397 6.1 -15.8°
